User: anonymous   Login
Location: Alberta Star Party
(51.6612°N, 112.9089°W)
Time: 01:34:59
(UTC-07:00)
Language:

AO-Echo - Orbit

View from above orbital plane
View from above orbital plane
View from above satellite
View from above satellite

Ground track
Ground track

The orbit data is extracted from the following two-line orbital elements,

1 28375U 04025K   16037.19718147  .00000122  00000-0  49079-4 0  9999
2 28375  98.3177 336.2143 0082387 343.8370  16.0194 14.41748464610203
Epoch (UTC): 06 February 2016 04:43:56
Eccentricity: 0.0082387
inclination: 98.3177°
perigee height: 694 km
apogee height: 811 km
right ascension of ascending node: 336.2143°
argument of perigee: 343.8370°
revolutions per day: 14.41748464
mean anomaly at epoch: 16.0194°
orbit number at epoch: 61020

The dashed part of the orbit path shows where the satellite is in the earth's shadow,  

DLR